Hourly Data Report for May 09, 2004

TORONTO CITY
ONTARIO

43°40'00.000" N
79°24'00.000" W
112.50 m
6158355
71508
XTO

Download Data

Hourly Data (May 2004)
Hourly Data Report for May 9, 2004
TIME
LST
Temp Definition
°C
Dew Point Definition
°C
Rel Hum Definition
%
Precip. Amount Definition
mm

Wind Dir Definition
10's deg

Wind Spd Definition
km/h
Visibility Definition
km
Stn Press Definition
kPa
Hmdx Definition


Wind Chill Definition


Weather Definition


00:00 7.3 3.8 78   LegendMM LegendMM LegendMM 100.52     LegendNANA
01:00 7.7 4.1 78   LegendMM LegendMM LegendMM 100.49     LegendNANA
02:00 8.0 4.5 79   LegendMM LegendMM LegendMM 100.49     LegendNANA
03:00 7.3 5.5 88   LegendMM LegendMM LegendMM 100.57     LegendNANA
04:00 6.8 5.9 94   LegendMM LegendMM LegendMM 100.59     LegendNANA
05:00 6.8 6.2 96   LegendMM LegendMM LegendMM 100.55     LegendNANA
06:00 7.0 6.2 95   LegendMM LegendMM LegendMM 100.58     LegendNANA
07:00 7.5 6.5 93   LegendMM LegendMM LegendMM 100.67     LegendNANA
08:00 8.3 6.7 90   LegendMM LegendMM LegendMM 100.63     LegendNANA
09:00 9.3 6.8 84   LegendMM LegendMM LegendMM 100.72     LegendNANA
10:00 8.9 6.4 84   LegendMM LegendMM LegendMM 100.77     LegendNANA
11:00 10.5 7.0 79   LegendMM LegendMM LegendMM 100.75     LegendNANA
12:00 11.1 5.7 69   LegendMM LegendMM LegendMM 100.72     LegendNANA
13:00 12.1 5.7 65   LegendMM LegendMM LegendMM 100.73     LegendNANA
14:00 12.4 5.4 62   LegendMM LegendMM LegendMM 100.72     LegendNANA
15:00 13.3 6.6 64   LegendMM LegendMM LegendMM 100.66     LegendNANA
16:00 13.4 6.3 62   LegendMM LegendMM LegendMM 100.61     LegendNANA
17:00 12.7 6.0 64   LegendMM LegendMM LegendMM 100.55     LegendNANA
18:00 11.9 5.6 65   LegendMM LegendMM LegendMM 100.50     LegendNANA
19:00 11.8 6.0 68   LegendMM LegendMM LegendMM 100.50     LegendNANA
20:00 11.1 5.7 69   LegendMM LegendMM LegendMM 100.46     LegendNANA
21:00 10.4 5.7 73   LegendMM LegendMM LegendMM 100.47     LegendNANA
22:00 10.3 6.3 76   LegendMM LegendMM LegendMM 100.38     LegendNANA
23:00 10.8 7.1 78   LegendMM LegendMM LegendMM 100.30     LegendNANA

Notes on Data Quality.

Legend

  • E = Estimated
  • M = Missing
  • NA = Not Available*
  • [empty] = Indicates an unobserved value
Date modified: